THOR BURNER 2 R/B

基本信息
目录编号:
3522
目录名称:
THOR BURNER 2 R/B
国际标识:
1968-092B
轨道中心:
EARTH
物体状态:
在轨
发射日期:
1968-10-23 UTC
国别:
美国 (US)
轨道信息
数据来源: 国际轨道数据
星历时间: 2026-07-13T17:37:37+0800
半长轴: 7166.371km
偏心率: 0.0029944
轨道倾角: 98.820°
近地点辐角: 90.986°
升交点赤经: 346.582°
平近点角: 269.475°
近地点: 766.775km
远地点: 809.693km
周期: 100.626分钟
每日圈数: 14.31047
详细信息
发射场:
AFWTR
轨道高度:
LEO
数据来源:
AOE Integration Group
参考系:
TEME
时间系统:
UTC
历元类型:
SGP4
2D轨道图
3D轨道图
轨道高度分析图
轨道倾角分析图
轨道综合分析图
查看轨道综合分析图